Regional Weather Roundup
Issued by NWS Charleston, SC

Current Version | Previous Version | Text Only | Print | Product List | Glossary On
Versions: 1 2 3 4 5 6 7 8 9 10 11 12 13 14 15 16 17 18 19 20 21 22 23 24 25 26 27 28 29 30 31 32 33 34 35 36 37 38 39 40 41 42 43 44 45 46 47 48 49 50
000 ASUS42 KCHS 271927 RWRCHS REGIONAL WEATHER ROUNDUP NATIONAL WEATHER SERVICE CHARLESTON SC 300 PM EDT TUE JUN 27 2017 NOTE: "FAIR" INDICATES FEW OR NO CLOUDS BELOW 12,000 FEET WITH NO SIGNIFICANT WEATHER AND/OR OBSTRUCTIONS TO VISIBILITY. NOT ALL STATIONS ARE QUALITY CONTROLLED. USE DATA WITH CAUTION... ESPECIALLY DEWPOINT OBSERVATIONS. SCZ027-030-031-034>040-042>050-272000- ...SOUTHEAST SOUTH CAROLINA... CITY SKY/WX TMP DP RH WIND PRES REMARKS N CHARLESTON PTSUNNY 87 63 44 VRB5 30.01F WATERFRONT PRK N/A 83 66 56 SE10 30.01F JOHNS ISLAND FAIR 84 63 48 E7 30.01F PINOPOLIS N/A 84 59 42 CALM 29.95F MONCKS CORNER FAIR 84 55 37 CALM 30.01F SUMMERVILLE FAIR 86 61 42 N3 30.02F BEAUFORT MCAS CLOUDY 85 72 65 SE3 30.01F HX 91 BEAUFORT ARPT FAIR 81 70 69 SE6 30.01S HILTON HEAD IS CLOUDY 86 70 58 E6 30.02F HX 90 WALTERBORO PTCLDY 86 61 42 E5 30.02F ALLENDALE MOCLDY 84 63 48 CALM 30.01S ...SOUTHERN MIDLANDS AND PEE DEE... CITY SKY/WX TMP DP RH WIND PRES REMARKS GEORGETOWN FAIR 86 64 48 CALM 30.02F KINGSTREE CLOUDY 82 61 47 CALM 30.02S ORANGEBURG CLOUDY 86 61 42 VRB3 30.02F BARNWELL MOCLDY 88 63 42 N7 30.02F AIKEN FAIR 82 59 44 N7 30.08S MANNING CLOUDY 81 64 57 N14 30.02S COLUMBIA CLOUDY 88 59 37 W7 30.03F SUMTER CLOUDY 85 60 42 NW6 30.01 FLORENCE MOSUNNY 85 60 42 N9 30.03S MYRTLE BEACH MOSUNNY 82 64 54 SE9 30.03F N MYRTLE BEACH PTSUNNY 83 67 58 S10 30.02F $$ GAZ063-065-086>088-099>101-113>116-118-119-134>141-150-272000- ...SOUTHEAST GEORGIA... CITY SKY/WX TMP DP RH WIND PRES REMARKS SAVANNAH ARPT CLOUDY 78 72 81 E13 30.03F HUNTER AAF NOT AVBL FORT STEWART NOT AVBL STATESBORO MOSUNNY 87 66 49 N6 30.02S SYLVANIA MOCLDY 86 67 53 N3 30.03S CLAXTON FAIR 85 66 51 N8 30.01S ...CSRA...CENTRAL AND FAR SOUTHEAST GEORGIA... CITY SKY/WX TMP DP RH WIND PRES REMARKS THOMSON MOSUNNY 83 60 46 CALM 30.10F AUGUSTA-BUSH MOSUNNY 89 58 34 N7 30.02F AUGUSTA-DANIEL PTSUNNY 88 54 31 N9 30.05S SWAINSBORO FAIR 84 64 51 N5 30.03F VIDALIA CLOUDY 86 68 54 N7 30.02F EASTMAN FAIR 86 52 30 N6 30.05F HAZLEHURST FAIR 89 68 50 N13 29.99F HX 92 ALMA PTSUNNY 87 72 60 VRB5 29.99F HX 93 WAYCROSS DRIZZLE 83 80 89 W3 29.98F HX 96 JESUP MOCLDY 82 73 74 CALM 29.99F BAXLEY FAIR 90 75 62 N10G17 29.98F HX 100 BRUNSWICK CLOUDY 82 73 74 E9 30.00S SAINT SIMONS PTSUNNY 82 73 74 E12 29.99F $$ SCZ027-028-034-036>038-045-046-048>050-GAZ119-141-272000- ...LAKE AND SUPPLEMENTAL COASTAL OBSERVATIONS... STATION/POSITION TIME TEMP WIND PRES WAVE SWELL AIR SEA DIR/SP/G HT/PER HT/PER/DIR (UTC) (F) (DEG/KT/KT) (MB) (FT/S) (FT/S/D) WINYAH BAY 1830 81 120/ 6 1017.0S LAKE MURRAY 1920 83 270/ 3/ 4 1016.3 ACE BASIN NERRS 1845 84 120/ 3 1016.0F FORT PULASKI 1900 74 83 150/ 3/ 5 1017.2 SAPELO ISLAND 1900 83 80/ 8 1016.0 $$ ANZ835-935-AMZ111-154-330-350-352-354-370-450-454-472-272000- ...C-MAN AND BUOY OBSERVATIONS... STATION/POSITION TIME TEMP WIND PRES WAVE SWELL AIR SEA DIR/SP/G HT/PER HT/PER/DIR (UTC) (F) (DEG/KT/KT) (MB) (FT/S) (FT/S/D) BUOY 41004 1910 80 81 60/ 8/ 12 1016.1 BUOY 41008 1850 80 82 70/ 12/ 14 1015.6F 2/ 8 2/130/ 8 FOLLY BEACH CMAN 1900 83 80/ 7/ 9 1017.3F CAPERS NEARSHORE 1908 87 84 100/ 6/ 8 1016.6F FRIPP NEARSHORE 1908 81 83 90/ 8/ 12 1016.1F STATION/POSITION TIME TEMP WIND PRES WAVE SWELL AIR SEA DIR/SP/G HT/PER HT/PER/DIR (UTC) (F) (DEG/KT/KT) (MB) (FT/S) (FT/S/D) 5E ST. MARYS GA 1900 80 N/A 2/ 5 FRYING PAN BUOY 1910 80 81 10/ 4/ 6 1016.6 BUOY 41025 1850 80 82 CALM / 2 1016.6R 2/ 6 2/ 70/ 6 CAPE LOOKOUT NC 1900 80 220/ 4/ 5 1016.2F BUOY 41002 1850 77 80 280/ 8/ 8 1017.0S 3/ 6 3/200/ 6 BUOY 41010 1910 83 84 230/ 8/ 10 1015.6 ST AUGUSTINE FL 1900 79 80 50/ 8/ 9 1016.1R $$

USA.gov is the U.S. government's official web portal to all federal, state and local government web resources and services.